Location: Praha
(50.0830°N, 14.4670°E)
Time: 22:37:29
(UTC+01:00)

ISS - Pass Details

Date: 05 November 2019
Orbit: 412 x 421 km, 51.6° (Epoch: 15 November)

Event Time Altitude Azimuth Distance (km) Brightness Sun altitude
Exits shadow 04:12:58 26° 72° (ENE) 880 -1.5 -26.7°
Drops below altitude 10° 04:14:32 10° 79° (ENE) 1,488 0.0 -26.4°
Sets 04:16:42 0° 82° (E) 2,371 1.4 -26.1°
